RYR39MF LMML-LOWW

Flight info

Callsign RYR39MF
Flight time 2h 10m
Altitude 36000
Route GZO P623 OLLEK DCT ARFOL DCT ROMSU DCT VACCE DCT LUNAR DCT XOLTA DCT ZAG DCT OBUTI OBUTI2W
Aircraft A320/M-SDE3FGHIRWY/LB1

Departure

Time 2026-04-23 08:39
Airport Malta International Airport (LMML)

Arrival

Time 2026-04-23 10:50
Airport Vienna International Airport (LOWW)
Time Latitude Longitude Altitude Speed Heading
2026-04-23 08:19 35.84859 14.49455 259 ft 0 kts 360°
2026-04-23 08:28 35.84857 14.49455 259 ft 2 kts 360°
2026-04-23 08:28 35.84831 14.49456 259 ft 4 kts 360°
2026-04-23 08:28 35.84810 14.49456 259 ft 3 kts 359°
2026-04-23 08:28 35.84784 14.49459 259 ft 4 kts 337°
2026-04-23 08:29 35.84770 14.49470 259 ft 0 kts 314°
2026-04-23 08:31 35.84784 14.49453 259 ft 7 kts 314°
2026-04-23 08:31 35.84829 14.49396 259 ft 13 kts 315°
2026-04-23 08:31 35.84899 14.49309 259 ft 14 kts 315°
2026-04-23 08:32 35.84937 14.49212 258 ft 12 kts 268°
2026-04-23 08:32 35.84896 14.49133 259 ft 10 kts 254°
2026-04-23 08:32 35.84940 14.49044 258 ft 18 kts 307°
2026-04-23 08:32 35.85001 14.48855 259 ft 27 kts 285°
2026-04-23 08:33 35.85053 14.48650 266 ft 23 kts 295°
2026-04-23 08:33 35.85141 14.48500 272 ft 25 kts 313°
2026-04-23 08:33 35.85286 14.48324 272 ft 30 kts 315°
2026-04-23 08:33 35.85435 14.48140 272 ft 31 kts 315°
2026-04-23 08:34 35.85581 14.47964 272 ft 30 kts 316°
2026-04-23 08:34 35.85724 14.47781 272 ft 28 kts 313°
2026-04-23 08:34 35.85848 14.47628 272 ft 15 kts 296°
2026-04-23 08:34 35.85817 14.47518 273 ft 13 kts 235°
2026-04-23 08:35 35.85765 14.47433 272 ft 12 kts 233°
2026-04-23 08:35 35.85718 14.47357 272 ft 10 kts 233°
2026-04-23 08:35 35.85674 14.47293 272 ft 10 kts 217°
2026-04-23 08:35 35.85587 14.47203 274 ft 23 kts 234°
2026-04-23 08:36 35.85480 14.47025 282 ft 25 kts 233°
2026-04-23 08:36 35.85409 14.46862 293 ft 19 kts 253°
2026-04-23 08:36 35.85351 14.46749 299 ft 13 kts 234°
2026-04-23 08:36 35.85309 14.46676 303 ft 11 kts 234°
2026-04-23 08:37 35.85236 14.46553 307 ft 24 kts 234°
2026-04-23 08:37 35.85137 14.46383 309 ft 23 kts 234°
2026-04-23 08:37 35.85046 14.46226 308 ft 21 kts 234°
2026-04-23 08:37 35.84963 14.46083 310 ft 20 kts 234°
2026-04-23 08:38 35.84875 14.45967 309 ft 18 kts 202°
2026-04-23 08:38 35.84770 14.46002 308 ft 16 kts 129°
2026-04-23 08:38 35.84779 14.46075 310 ft 0 kts 54°
2026-04-23 08:38 35.84815 14.46136 308 ft 33 kts 54°
2026-04-23 08:39 35.85091 14.46612 308 ft 100 kts 54°
2026-04-23 08:39 35.85604 14.47495 387 ft 142 kts 54°
2026-04-23 08:39 35.86174 14.48469 1032 ft 140 kts 56°
2026-04-23 08:39 35.86737 14.49456 1682 ft 145 kts 55°
2026-04-23 08:40 35.87357 14.50547 2010 ft 167 kts 56°
2026-04-23 08:40 35.88068 14.51800 2300 ft 190 kts 55°
2026-04-23 08:40 35.88877 14.53224 2638 ft 215 kts 54°
2026-04-23 08:40 35.89907 14.54687 3082 ft 238 kts 34°
2026-04-23 08:41 35.91484 14.55386 3720 ft 249 kts
2026-04-23 08:41 35.93215 14.55246 4624 ft 252 kts 355°
2026-04-23 08:41 35.94991 14.55266 5452 ft 258 kts
2026-04-23 08:41 35.96799 14.55422 6297 ft 263 kts
2026-04-23 08:42 35.98634 14.55612 7124 ft 266 kts
2026-04-23 08:42 36.00460 14.55787 7952 ft 268 kts
2026-04-23 08:42 36.02328 14.55941 8785 ft 270 kts 359°
2026-04-23 08:42 36.04215 14.56076 9671 ft 272 kts 358°
2026-04-23 08:43 36.06118 14.56195 10405 ft 279 kts 358°
2026-04-23 08:43 36.08140 14.56304 10634 ft 303 kts 358°
2026-04-23 08:43 36.10317 14.56417 10959 ft 321 kts 358°
2026-04-23 08:43 36.12577 14.56542 11589 ft 328 kts 358°
2026-04-23 08:44 36.14873 14.56677 12281 ft 333 kts 358°
2026-04-23 08:44 36.17203 14.56815 12975 ft 337 kts 358°
2026-04-23 08:44 36.19564 14.56951 13670 ft 342 kts 358°
2026-04-23 08:44 36.21958 14.57087 14298 ft 346 kts 358°
2026-04-23 08:45 36.24375 14.57221 14937 ft 349 kts 358°
2026-04-23 08:45 36.26811 14.57356 15580 ft 352 kts 358°
2026-04-23 08:45 36.29264 14.57495 16221 ft 354 kts 358°
2026-04-23 08:45 36.31737 14.57633 16860 ft 357 kts 357°
2026-04-23 08:46 36.34225 14.57772 17498 ft 359 kts 357°
2026-04-23 08:46 36.36729 14.57913 18163 ft 361 kts 357°
2026-04-23 08:46 36.39243 14.58056 18723 ft 364 kts 357°
2026-04-23 08:46 36.41782 14.58201 19267 ft 366 kts 357°
2026-04-23 08:47 36.44340 14.58346 19808 ft 369 kts 357°
2026-04-23 08:47 36.46916 14.58490 20344 ft 372 kts 357°
2026-04-23 08:47 36.49509 14.58645 20873 ft 376 kts 359°
2026-04-23 08:47 36.52124 14.59145 21393 ft 383 kts
2026-04-23 08:48 36.54756 14.59758 21919 ft 386 kts
2026-04-23 08:48 36.57407 14.60372 22463 ft 389 kts
2026-04-23 08:48 36.60075 14.60985 22965 ft 392 kts
2026-04-23 08:48 36.62768 14.61602 23453 ft 395 kts
2026-04-23 08:49 36.65478 14.62222 23879 ft 397 kts
2026-04-23 08:49 36.68207 14.62848 24280 ft 400 kts
2026-04-23 08:49 36.70945 14.63477 24679 ft 401 kts
2026-04-23 08:49 36.72767 14.63896 24939 ft 403 kts
2026-04-23 08:50 36.75528 14.64532 25327 ft 405 kts
2026-04-23 08:50 36.78302 14.65172 25699 ft 406 kts
2026-04-23 08:50 36.81090 14.65819 26085 ft 408 kts
2026-04-23 08:50 36.83889 14.66466 26465 ft 410 kts
2026-04-23 08:51 36.86699 14.67109 26825 ft 411 kts
2026-04-23 08:51 36.89520 14.67750 27186 ft 413 kts
2026-04-23 08:51 36.92357 14.68393 27544 ft 415 kts
2026-04-23 08:51 36.95205 14.69042 27889 ft 417 kts
2026-04-23 08:52 36.98066 14.69694 28230 ft 419 kts
2026-04-23 08:52 37.00941 14.70346 28563 ft 421 kts
2026-04-23 08:52 37.03834 14.71001 28935 ft 423 kts
2026-04-23 08:52 37.06729 14.71658 29271 ft 424 kts
2026-04-23 08:53 37.09640 14.72322 29578 ft 426 kts
2026-04-23 08:53 37.12564 14.72990 29866 ft 427 kts
2026-04-23 08:53 37.15494 14.73658 30144 ft 429 kts
2026-04-23 08:53 37.18434 14.74327 30388 ft 430 kts
2026-04-23 08:54 37.21384 14.75003 30614 ft 432 kts
2026-04-23 08:54 37.24347 14.75686 30827 ft 433 kts
2026-04-23 08:54 37.27316 14.76360 31077 ft 434 kts
2026-04-23 08:54 37.30281 14.77024 31409 ft 432 kts
2026-04-23 08:55 37.33237 14.77680 31726 ft 431 kts
2026-04-23 08:55 37.36186 14.78331 32037 ft 430 kts
2026-04-23 08:55 37.39131 14.78983 32363 ft 429 kts
2026-04-23 08:55 37.42064 14.79636 32665 ft 428 kts
2026-04-23 08:56 37.44995 14.80294 32963 ft 427 kts
2026-04-23 08:56 37.47913 14.80952 33256 ft 426 kts
2026-04-23 08:56 37.50826 14.81612 33551 ft 425 kts
2026-04-23 08:56 37.53737 14.82270 33853 ft 424 kts
2026-04-23 08:57 37.56635 14.82921 34160 ft 423 kts
2026-04-23 08:57 37.59495 14.83560 34405 ft 422 kts
2026-04-23 08:57 37.62383 14.84208 34658 ft 422 kts
2026-04-23 08:57 37.65269 14.84858 34900 ft 421 kts
2026-04-23 08:58 37.68148 14.85506 35142 ft 420 kts
2026-04-23 08:58 37.71019 14.86150 35422 ft 419 kts
2026-04-23 08:58 37.73887 14.86798 35670 ft 418 kts
2026-04-23 08:58 37.76748 14.87447 35924 ft 417 kts
2026-04-23 08:59 37.79605 14.88095 36078 ft 417 kts
2026-04-23 08:59 37.82460 14.88742 36113 ft 416 kts
2026-04-23 08:59 37.88147 14.90024 36115 ft 415 kts
2026-04-23 09:00 37.93826 14.91305 36143 ft 414 kts
2026-04-23 09:00 37.99506 14.92595 36124 ft 415 kts
2026-04-23 09:01 38.05199 14.93892 36112 ft 416 kts
2026-04-23 09:01 38.10896 14.95193 36109 ft 416 kts
2026-04-23 09:02 38.16597 14.96496 36140 ft 416 kts
2026-04-23 09:02 38.22301 14.97801 36129 ft 416 kts
2026-04-23 09:03 38.28001 14.99107 36123 ft 416 kts
2026-04-23 09:03 38.33671 15.00399 36116 ft 417 kts
2026-04-23 09:04 38.39414 15.01720 36156 ft 417 kts
2026-04-23 09:04 38.45082 15.03027 36142 ft 417 kts
2026-04-23 09:05 38.50787 15.04341 36133 ft 417 kts
2026-04-23 09:05 38.56492 15.05657 36126 ft 417 kts
2026-04-23 09:06 38.62196 15.06974 36142 ft 417 kts
2026-04-23 09:06 38.67903 15.08297 36128 ft 417 kts
2026-04-23 09:07 38.73613 15.09522 36123 ft 415 kts
2026-04-23 09:07 38.79325 15.10418 36119 ft 413 kts 359°
2026-04-23 09:08 38.85035 15.11240 36153 ft 413 kts 359°
2026-04-23 09:08 38.90747 15.12126 36140 ft 414 kts 359°
2026-04-23 09:09 38.96459 15.13055 36136 ft 414 kts 359°
2026-04-23 09:09 39.02170 15.14001 36130 ft 414 kts 359°
2026-04-23 09:10 39.10741 15.15408 36139 ft 414 kts 359°
2026-04-23 09:11 39.16454 15.16331 36139 ft 414 kts 359°
2026-04-23 09:11 39.22170 15.17251 36135 ft 414 kts 359°
2026-04-23 09:12 39.27845 15.18181 36157 ft 414 kts
2026-04-23 09:12 39.33570 15.19119 36140 ft 415 kts
2026-04-23 09:13 39.39303 15.20056 36133 ft 415 kts 360°
2026-04-23 09:13 39.45041 15.20993 36130 ft 416 kts
2026-04-23 09:14 39.50791 15.21947 36134 ft 416 kts
2026-04-23 09:14 39.56541 15.22898 36130 ft 417 kts
2026-04-23 09:15 39.62301 15.23841 36132 ft 417 kts
2026-04-23 09:15 39.68061 15.24775 36131 ft 417 kts
2026-04-23 09:16 39.73822 15.25726 36134 ft 418 kts
2026-04-23 09:16 39.79591 15.26689 36134 ft 418 kts
2026-04-23 09:17 39.85357 15.27649 36132 ft 418 kts
2026-04-23 09:17 39.91128 15.28607 36159 ft 418 kts
2026-04-23 09:18 39.96906 15.29571 36141 ft 419 kts
2026-04-23 09:18 40.02703 15.30540 36130 ft 420 kts
2026-04-23 09:19 40.08510 15.31508 36134 ft 421 kts
2026-04-23 09:19 40.14325 15.32474 36150 ft 422 kts
2026-04-23 09:20 40.20145 15.33458 36143 ft 422 kts
2026-04-23 09:20 40.25979 15.34438 36142 ft 423 kts
2026-04-23 09:21 40.31816 15.35416 36157 ft 423 kts
2026-04-23 09:21 40.37616 15.36386 36151 ft 423 kts
2026-04-23 09:22 40.43495 15.37374 36160 ft 423 kts
2026-04-23 09:22 40.49335 15.38368 36161 ft 423 kts
2026-04-23 09:23 40.55135 15.39357 36179 ft 423 kts
2026-04-23 09:23 40.60979 15.40350 36182 ft 423 kts
2026-04-23 09:24 40.66819 15.41338 36184 ft 423 kts
2026-04-23 09:24 40.72666 15.42316 36180 ft 423 kts
2026-04-23 09:25 40.78511 15.43252 36190 ft 423 kts
2026-04-23 09:25 40.84363 15.44169 36187 ft 424 kts
2026-04-23 09:26 40.90217 15.45093 36194 ft 424 kts
2026-04-23 09:26 40.96069 15.46038 36200 ft 424 kts
2026-04-23 09:27 41.01920 15.46994 36198 ft 423 kts
2026-04-23 09:27 41.07767 15.47931 36198 ft 423 kts
2026-04-23 09:28 41.13616 15.48865 36205 ft 423 kts
2026-04-23 09:28 41.19466 15.49808 36198 ft 424 kts
2026-04-23 09:29 41.25318 15.50761 36195 ft 424 kts
2026-04-23 09:29 41.31176 15.51723 36195 ft 424 kts
2026-04-23 09:30 41.37033 15.52672 36193 ft 424 kts
2026-04-23 09:30 41.42895 15.53624 36194 ft 424 kts
2026-04-23 09:31 41.48758 15.54577 36197 ft 424 kts
2026-04-23 09:31 41.54616 15.55538 36196 ft 424 kts
2026-04-23 09:32 41.60478 15.56500 36203 ft 424 kts
2026-04-23 09:32 41.66328 15.57458 36204 ft 423 kts
2026-04-23 09:33 41.72169 15.58416 36206 ft 423 kts
2026-04-23 09:33 41.78007 15.59376 36219 ft 423 kts
2026-04-23 09:34 41.83844 15.60340 36222 ft 423 kts
2026-04-23 09:34 41.89644 15.61296 36223 ft 423 kts
2026-04-23 09:35 41.95483 15.62270 36226 ft 423 kts
2026-04-23 09:35 42.01315 15.63241 36225 ft 422 kts
2026-04-23 09:36 42.07152 15.64207 36227 ft 422 kts
2026-04-23 09:36 42.12988 15.65177 36224 ft 423 kts
2026-04-23 09:37 42.18832 15.66152 36210 ft 423 kts
2026-04-23 09:37 42.24680 15.67129 36207 ft 424 kts
2026-04-23 09:38 42.30532 15.68107 36209 ft 424 kts
2026-04-23 09:38 42.36388 15.69086 36205 ft 424 kts
2026-04-23 09:39 42.41257 15.69904 36205 ft 424 kts
2026-04-23 09:39 42.47125 15.70892 36210 ft 425 kts
2026-04-23 09:40 42.52989 15.71878 36208 ft 425 kts
2026-04-23 09:40 42.58863 15.72874 36205 ft 425 kts
2026-04-23 09:41 42.64734 15.73873 36208 ft 425 kts
2026-04-23 09:41 42.70608 15.74875 36218 ft 425 kts
2026-04-23 09:42 42.76484 15.75859 36219 ft 425 kts
2026-04-23 09:42 42.82356 15.76825 36226 ft 425 kts
2026-04-23 09:43 42.88217 15.77792 36229 ft 424 kts
2026-04-23 09:43 42.94075 15.78766 36217 ft 424 kts
2026-04-23 09:44 42.99922 15.79742 36225 ft 423 kts
2026-04-23 09:44 43.05761 15.80720 36236 ft 423 kts 10°
2026-04-23 09:45 43.11597 15.81705 36221 ft 422 kts
2026-04-23 09:45 43.17428 15.82681 36215 ft 422 kts 10°
2026-04-23 09:46 43.23264 15.83667 36214 ft 422 kts 10°
2026-04-23 09:46 43.29097 15.84654 36213 ft 422 kts 10°
2026-04-23 09:47 43.34894 15.85634 36195 ft 423 kts 11°
2026-04-23 09:47 43.40738 15.86625 36196 ft 423 kts 11°
2026-04-23 09:48 43.46589 15.87616 36195 ft 424 kts 11°
2026-04-23 09:48 43.52441 15.88612 36179 ft 424 kts 11°
2026-04-23 09:49 43.58303 15.89607 36191 ft 424 kts 11°
2026-04-23 09:49 43.64162 15.90601 36193 ft 425 kts 11°
2026-04-23 09:50 43.70029 15.91609 36185 ft 425 kts 11°
2026-04-23 09:50 43.75893 15.92617 36183 ft 425 kts 11°
2026-04-23 09:51 43.81758 15.93623 36182 ft 425 kts 11°
2026-04-23 09:51 43.87623 15.94631 36180 ft 425 kts 11°
2026-04-23 09:52 43.93481 15.95646 36193 ft 424 kts 12°
2026-04-23 09:52 43.99331 15.96660 36196 ft 423 kts 11°
2026-04-23 09:53 44.05174 15.97670 36198 ft 423 kts 11°
2026-04-23 09:53 44.11009 15.98681 36205 ft 422 kts 12°
2026-04-23 09:54 44.16826 15.99690 36203 ft 421 kts 12°
2026-04-23 09:54 44.22638 16.00703 36209 ft 420 kts 12°
2026-04-23 09:55 44.28435 16.01714 36219 ft 419 kts 12°
2026-04-23 09:55 44.34207 16.02723 36223 ft 417 kts 12°
2026-04-23 09:56 44.39954 16.03731 36219 ft 416 kts 12°
2026-04-23 09:56 44.45691 16.04732 36200 ft 415 kts 12°
2026-04-23 09:57 44.51413 16.05736 36217 ft 414 kts 12°
2026-04-23 09:57 44.57087 16.06736 36225 ft 414 kts 12°
2026-04-23 09:58 44.62799 16.07750 36226 ft 413 kts 12°
2026-04-23 09:58 44.68511 16.08762 36203 ft 414 kts 12°
2026-04-23 09:59 44.74232 16.09782 36207 ft 415 kts 12°
2026-04-23 09:59 44.79958 16.10796 36227 ft 415 kts 12°
2026-04-23 10:00 44.85684 16.11816 36205 ft 415 kts 12°
2026-04-23 10:00 44.91418 16.12842 36215 ft 415 kts 12°
2026-04-23 10:01 44.97157 16.13868 36224 ft 416 kts 12°
2026-04-23 10:01 45.02898 16.14887 36210 ft 416 kts 11°
2026-04-23 10:02 45.08635 16.15915 36223 ft 415 kts 11°
2026-04-23 10:02 45.14363 16.16954 36229 ft 415 kts 11°
2026-04-23 10:03 45.20092 16.17983 36230 ft 415 kts 11°
2026-04-23 10:03 45.25777 16.19009 36226 ft 414 kts 11°
2026-04-23 10:04 45.31492 16.20038 36229 ft 414 kts 11°
2026-04-23 10:04 45.37215 16.21072 36231 ft 414 kts 11°
2026-04-23 10:05 45.42930 16.22110 36225 ft 414 kts 11°
2026-04-23 10:05 45.48638 16.23148 36228 ft 413 kts 11°
2026-04-23 10:06 45.54338 16.24181 36228 ft 413 kts 11°
2026-04-23 10:06 45.60033 16.25234 36226 ft 412 kts 11°
2026-04-23 10:07 45.65723 16.26281 36221 ft 412 kts 11°
2026-04-23 10:07 45.71412 16.27326 36220 ft 412 kts 11°
2026-04-23 10:08 45.77098 16.28370 36224 ft 412 kts 11°
2026-04-23 10:08 45.82784 16.29416 36225 ft 412 kts 11°
2026-04-23 10:09 45.91332 16.30565 36223 ft 415 kts
2026-04-23 10:09 45.97104 16.30156 36215 ft 415 kts
2026-04-23 10:10 46.02872 16.29763 36205 ft 415 kts
2026-04-23 10:10 46.08644 16.29371 36204 ft 415 kts
2026-04-23 10:11 46.14413 16.28996 36202 ft 415 kts
2026-04-23 10:11 46.20143 16.28604 36208 ft 415 kts
2026-04-23 10:12 46.25913 16.28208 36198 ft 415 kts
2026-04-23 10:12 46.31683 16.27815 36199 ft 415 kts
2026-04-23 10:13 46.37456 16.27411 36201 ft 416 kts 359°
2026-04-23 10:13 46.43212 16.26133 36182 ft 419 kts 355°
2026-04-23 10:14 46.48969 16.24766 36188 ft 419 kts 355°
2026-04-23 10:14 46.54727 16.23404 36194 ft 419 kts 355°
2026-04-23 10:15 46.60485 16.22040 36197 ft 420 kts 355°
2026-04-23 10:15 46.66250 16.20666 36200 ft 419 kts 355°
2026-04-23 10:16 46.72007 16.19305 36206 ft 419 kts 356°
2026-04-23 10:16 46.74888 16.19141 35627 ft 414 kts 10°
2026-04-23 10:16 46.77701 16.20040 34555 ft 417 kts 18°
2026-04-23 10:17 46.80514 16.21168 33447 ft 420 kts 18°
2026-04-23 10:17 46.83337 16.22307 32322 ft 422 kts 18°
2026-04-23 10:17 46.86172 16.23442 31197 ft 424 kts 17°
2026-04-23 10:17 46.89040 16.24576 29993 ft 427 kts 17°
2026-04-23 10:18 46.91926 16.25704 28565 ft 431 kts 17°
2026-04-23 10:18 46.94842 16.26838 27070 ft 436 kts 17°
2026-04-23 10:18 46.97793 16.27985 25605 ft 442 kts 17°
2026-04-23 10:18 47.00761 16.29139 24520 ft 440 kts 17°
2026-04-23 10:19 47.03711 16.30292 23514 ft 437 kts 16°
2026-04-23 10:19 47.06633 16.31438 22515 ft 432 kts 16°
2026-04-23 10:19 47.09492 16.32562 21391 ft 418 kts 16°
2026-04-23 10:19 47.12274 16.33652 19965 ft 410 kts 16°
2026-04-23 10:20 47.15002 16.34722 18648 ft 401 kts 16°
2026-04-23 10:20 47.17672 16.35774 17283 ft 393 kts 15°
2026-04-23 10:20 47.20240 16.36794 16782 ft 368 kts 15°
2026-04-23 10:20 47.22620 16.37741 16412 ft 343 kts 15°
2026-04-23 10:21 47.24944 16.38669 15959 ft 356 kts 15°
2026-04-23 10:21 47.27363 16.39633 15469 ft 361 kts 15°
2026-04-23 10:21 47.29791 16.40596 14966 ft 361 kts 15°
2026-04-23 10:21 47.30826 16.41006 14747 ft 359 kts 15°
2026-04-23 10:22 47.32808 16.41792 14331 ft 357 kts 15°
2026-04-23 10:22 47.35195 16.42737 13772 ft 354 kts 15°
2026-04-23 10:22 47.37562 16.43673 13221 ft 351 kts 15°
2026-04-23 10:22 47.39911 16.44605 12636 ft 348 kts 15°
2026-04-23 10:23 47.42242 16.45535 12081 ft 345 kts 15°
2026-04-23 10:23 47.44549 16.46457 11499 ft 343 kts 15°
2026-04-23 10:23 47.46827 16.47369 11136 ft 333 kts 14°
2026-04-23 10:23 47.49004 16.48243 11011 ft 316 kts 14°
2026-04-23 10:24 47.51075 16.49072 10886 ft 301 kts 14°
2026-04-23 10:24 47.53022 16.49848 10764 ft 287 kts 14°
2026-04-23 10:24 47.54934 16.50611 10639 ft 275 kts 14°
2026-04-23 10:24 47.56721 16.51326 10505 ft 264 kts 14°
2026-04-23 10:25 47.58473 16.52027 10279 ft 258 kts 14°
2026-04-23 10:25 47.60194 16.52717 10221 ft 256 kts 14°
2026-04-23 10:25 47.61910 16.53409 10126 ft 256 kts 13°
2026-04-23 10:25 47.63625 16.54100 10012 ft 256 kts 14°
2026-04-23 10:26 47.65361 16.54797 9496 ft 261 kts 13°
2026-04-23 10:26 47.67096 16.55493 9177 ft 256 kts 13°
2026-04-23 10:26 47.68816 16.56185 8765 ft 255 kts 13°
2026-04-23 10:26 47.70522 16.56872 8370 ft 253 kts 13°
2026-04-23 10:27 47.72216 16.57556 7967 ft 251 kts 13°
2026-04-23 10:27 47.73897 16.58237 7536 ft 250 kts 12°
2026-04-23 10:27 47.75574 16.58918 7115 ft 249 kts 12°
2026-04-23 10:27 47.77244 16.59597 6714 ft 248 kts 12°
2026-04-23 10:28 47.78904 16.60269 6293 ft 247 kts 12°
2026-04-23 10:28 47.80004 16.60714 5997 ft 246 kts 11°
2026-04-23 10:28 47.81662 16.61383 5432 ft 249 kts 11°
2026-04-23 10:28 47.83367 16.62065 4763 ft 258 kts 10°
2026-04-23 10:29 47.85086 16.62761 4425 ft 252 kts 10°
2026-04-23 10:29 47.86735 16.63438 4296 ft 239 kts 10°
2026-04-23 10:29 47.88287 16.64077 4173 ft 225 kts 10°
2026-04-23 10:29 47.89756 16.64681 4075 ft 213 kts 10°
2026-04-23 10:30 47.91146 16.65252 3978 ft 202 kts 11°
2026-04-23 10:30 47.92475 16.65723 3867 ft 194 kts 360°
2026-04-23 10:30 47.93789 16.65488 3670 ft 190 kts 342°
2026-04-23 10:30 47.95048 16.64957 3447 ft 185 kts 341°
2026-04-23 10:31 47.96282 16.64435 3194 ft 185 kts 342°
2026-04-23 10:31 47.97506 16.63919 2941 ft 179 kts 342°
2026-04-23 10:31 47.98672 16.63430 2737 ft 169 kts 341°
2026-04-23 10:31 47.99770 16.62968 2488 ft 159 kts 341°
2026-04-23 10:32 48.00806 16.62533 2265 ft 147 kts 341°
2026-04-23 10:32 48.01733 16.62144 2087 ft 132 kts 341°
2026-04-23 10:32 48.02602 16.61777 1905 ft 128 kts 341°
2026-04-23 10:32 48.03446 16.61421 1733 ft 125 kts 340°
2026-04-23 10:33 48.04274 16.61071 1567 ft 123 kts 340°
2026-04-23 10:33 48.05115 16.60716 1385 ft 128 kts 340°
2026-04-23 10:33 48.05972 16.60354 1215 ft 128 kts 339°
2026-04-23 10:33 48.06835 16.59990 1043 ft 130 kts 341°
2026-04-23 10:34 48.07678 16.59636 893 ft 124 kts 344°
2026-04-23 10:34 48.08516 16.59278 769 ft 125 kts 340°
2026-04-23 10:34 48.09366 16.58917 623 ft 126 kts 341°
2026-04-23 10:34 48.10125 16.58603 689 ft 117 kts 340°
2026-04-23 10:35 48.11005 16.58206 1175 ft 142 kts 340°
2026-04-23 10:35 48.11976 16.57794 2002 ft 152 kts 341°
2026-04-23 10:35 48.12981 16.57348 2817 ft 148 kts 340°
2026-04-23 10:35 48.13961 16.56903 3470 ft 154 kts 340°
2026-04-23 10:36 48.15074 16.56427 3848 ft 178 kts 342°
2026-04-23 10:36 48.16310 16.55909 4512 ft 188 kts 343°
2026-04-23 10:36 48.17600 16.55370 4931 ft 193 kts 343°
2026-04-23 10:36 48.18901 16.54908 4994 ft 192 kts 355°
2026-04-23 10:37 48.20208 16.55301 5005 ft 198 kts 24°
2026-04-23 10:37 48.21205 16.56781 5002 ft 213 kts 54°
2026-04-23 10:37 48.21558 16.58962 5013 ft 229 kts 86°
2026-04-23 10:37 48.21000 16.61250 5009 ft 244 kts 126°
2026-04-23 10:38 48.19591 16.62660 5005 ft 249 kts 168°
2026-04-23 10:38 48.17871 16.62862 5015 ft 250 kts 182°
2026-04-23 10:38 48.16122 16.62886 5005 ft 252 kts 182°
2026-04-23 10:38 48.14370 16.62898 5007 ft 252 kts 182°
2026-04-23 10:39 48.12625 16.62911 5014 ft 251 kts 182°
2026-04-23 10:39 48.10875 16.62931 5006 ft 252 kts 182°
2026-04-23 10:39 48.09134 16.63115 5010 ft 251 kts 176°
2026-04-23 10:39 48.07395 16.63392 5003 ft 251 kts 176°
2026-04-23 10:40 48.05652 16.63695 5007 ft 253 kts 175°
2026-04-23 10:40 48.03909 16.64004 5012 ft 252 kts 176°
2026-04-23 10:40 48.02171 16.64312 5008 ft 252 kts 176°
2026-04-23 10:40 48.00428 16.64615 5011 ft 253 kts 176°
2026-04-23 10:41 47.98685 16.64914 5013 ft 252 kts 176°
2026-04-23 10:41 47.96950 16.65222 5012 ft 251 kts 173°
2026-04-23 10:41 47.95279 16.66015 5006 ft 253 kts 158°
2026-04-23 10:41 47.93671 16.67078 5014 ft 253 kts 156°
2026-04-23 10:42 47.92070 16.68171 5012 ft 253 kts 155°
2026-04-23 10:42 47.90466 16.69257 5015 ft 254 kts 155°
2026-04-23 10:42 47.88794 16.70010 5014 ft 250 kts 179°
2026-04-23 10:42 47.87105 16.69701 5013 ft 241 kts 207°
2026-04-23 10:43 47.85722 16.68422 5016 ft 230 kts 233°
2026-04-23 10:43 47.84855 16.66551 5012 ft 213 kts 257°
2026-04-23 10:43 47.84535 16.64475 5020 ft 201 kts 276°
2026-04-23 10:43 47.84720 16.62459 5017 ft 195 kts 294°
2026-04-23 10:44 47.85336 16.60704 5023 ft 190 kts 311°
2026-04-23 10:44 47.86298 16.59371 5013 ft 190 kts 328°
2026-04-23 10:44 47.87500 16.58590 5022 ft 191 kts 345°
2026-04-23 10:44 47.88858 16.58664 4581 ft 206 kts 12°
2026-04-23 10:45 47.90237 16.59266 4167 ft 204 kts
2026-04-23 10:45 47.91593 16.59786 3899 ft 200 kts
2026-04-23 10:45 47.92915 16.60289 3650 ft 197 kts
2026-04-23 10:45 47.94240 16.60793 3423 ft 196 kts
2026-04-23 10:46 47.95561 16.61296 3189 ft 195 kts
2026-04-23 10:46 47.96869 16.61794 2956 ft 191 kts
2026-04-23 10:46 47.98145 16.62280 2737 ft 190 kts
2026-04-23 10:46 47.99432 16.62609 2515 ft 185 kts 356°
2026-04-23 10:47 48.00691 16.62428 2300 ft 179 kts 347°
2026-04-23 10:47 48.01880 16.62031 2054 ft 172 kts 343°
2026-04-23 10:47 48.03003 16.61590 1821 ft 160 kts 341°
2026-04-23 10:47 48.04013 16.61177 1629 ft 139 kts 340°
2026-04-23 10:48 48.04911 16.60802 1434 ft 130 kts 339°
2026-04-23 10:48 48.05782 16.60435 1265 ft 131 kts 341°
2026-04-23 10:48 48.06630 16.60078 1086 ft 126 kts 342°
2026-04-23 10:48 48.07473 16.59721 921 ft 125 kts 341°
2026-04-23 10:49 48.08324 16.59360 744 ft 126 kts 341°
2026-04-23 10:49 48.09157 16.59013 627 ft 123 kts 341°
2026-04-23 10:49 48.09859 16.58710 614 ft 87 kts 346°
2026-04-23 10:49 48.10360 16.58500 611 ft 64 kts 343°
2026-04-23 10:50 48.10684 16.58333 615 ft 40 kts 327°
2026-04-23 10:50 48.10828 16.58131 609 ft 16 kts 314°
2026-04-23 10:50 48.10901 16.58020 609 ft 15 kts 314°
2026-04-23 10:50 48.10973 16.57910 614 ft 15 kts 314°
2026-04-23 10:51 48.11039 16.57794 613 ft 15 kts 297°
2026-04-23 10:51 48.11088 16.57645 616 ft 17 kts 296°
2026-04-23 10:51 48.11140 16.57486 611 ft 18 kts 296°
2026-04-23 10:51 48.11195 16.57321 609 ft 18 kts 296°
2026-04-23 10:52 48.11252 16.57153 613 ft 18 kts 297°
2026-04-23 10:52 48.11305 16.56986 613 ft 18 kts 294°
2026-04-23 10:52 48.11359 16.56812 618 ft 18 kts 295°
2026-04-23 10:52 48.11415 16.56643 617 ft 18 kts 296°
2026-04-23 10:53 48.11470 16.56474 611 ft 18 kts 296°
2026-04-23 10:53 48.11523 16.56311 614 ft 17 kts 296°
2026-04-23 10:53 48.11575 16.56153 619 ft 17 kts 296°
2026-04-23 10:53 48.11630 16.55985 610 ft 18 kts 296°
2026-04-23 10:54 48.11684 16.55823 623 ft 17 kts 296°
2026-04-23 10:54 48.11737 16.55660 613 ft 17 kts 295°
2026-04-23 10:54 48.11788 16.55501 611 ft 18 kts 297°
2026-04-23 10:54 48.11883 16.55433 609 ft 14 kts
2026-04-23 10:55 48.11974 16.55480 617 ft 14 kts 26°
2026-04-23 10:55 48.12032 16.55505 616 ft 8 kts 334°
2026-04-23 10:55 48.12049 16.55451 619 ft 3 kts 292°
2026-04-23 10:55 48.12049 16.55449 619 ft 0 kts 292°